TimeEST,TemperatureF,Dew PointF,Humidity,Sea Level PressureIn,VisibilityMPH,Wind Direction,Wind SpeedMPH,Gust SpeedMPH,PrecipitationIn,Events,Conditions,WindDirDegrees,DateUTC
12:15 AM,52.7,48.7,86,30.43,10.0,Calm,Calm,-,N/A,,Clear,0,2013-11-06 05:15:00
12:35 AM,52.3,49.8,91,30.41,10.0,North,3.5,-,N/A,,Clear,10,2013-11-06 05:35:00
12:55 AM,52.3,50.4,93,30.40,10.0,Calm,Calm,-,N/A,,Clear,0,2013-11-06 05:55:00
1:35 AM,52.0,50.4,94,30.39,10.0,NNE,3.5,-,N/A,,Clear,30,2013-11-06 06:35:00
1:55 AM,52.3,50.5,94,30.39,10.0,NNE,3.5,-,N/A,,Clear,20,2013-11-06 06:55:00
2:15 AM,52.5,50.9,94,30.39,10.0,North,3.5,-,N/A,,Clear,10,2013-11-06 07:15:00
2:35 AM,52.5,50.9,94,30.38,10.0,NNE,4.6,-,N/A,,Clear,20,2013-11-06 07:35:00
2:55 AM,52.3,50.9,95,30.38,10.0,NNE,4.6,-,N/A,,Clear,20,2013-11-06 07:55:00
3:15 AM,52.3,50.9,95,30.37,10.0,North,3.5,-,N/A,,Clear,10,2013-11-06 08:15:00
3:35 AM,51.8,50.7,96,30.37,10.0,North,3.5,-,N/A,,Clear,360,2013-11-06 08:35:00
3:55 AM,52.0,50.7,95,30.36,10.0,NNE,3.5,-,N/A,,Clear,20,2013-11-06 08:55:00
4:15 AM,50.9,50.0,97,30.36,10.0,Calm,Calm,-,N/A,,Clear,0,2013-11-06 09:15:00
4:35 AM,50.4,49.8,98,30.37,10.0,North,3.5,-,N/A,,Clear,350,2013-11-06 09:35:00
4:55 AM,50.0,49.8,99,30.37,10.0,Calm,Calm,-,N/A,,Clear,0,2013-11-06 09:55:00
5:15 AM,50.2,50.0,99,30.36,10.0,North,3.5,-,N/A,,Clear,360,2013-11-06 10:15:00
5:35 AM,49.5,49.3,99,30.36,10.0,Calm,Calm,-,N/A,,Clear,0,2013-11-06 10:35:00
5:55 AM,49.5,49.3,99,30.37,10.0,Calm,Calm,-,N/A,,Clear,0,2013-11-06 10:55:00
6:15 AM,49.1,49.1,100,30.36,10.0,North,3.5,-,N/A,,Clear,350,2013-11-06 11:15:00
6:35 AM,49.1,49.1,100,30.36,10.0,Calm,Calm,-,N/A,,Clear,0,2013-11-06 11:35:00
6:55 AM,48.2,48.2,100,30.37,10.0,Calm,Calm,-,N/A,,Clear,0,2013-11-06 11:55:00
7:15 AM,49.1,49.1,100,30.37,10.0,North,3.5,-,N/A,,Clear,360,2013-11-06 12:15:00
7:35 AM,50.7,50.0,97,30.36,10.0,Calm,Calm,-,N/A,,Clear,0,2013-11-06 12:35:00
7:55 AM,52.2,50.5,94,30.36,10.0,North,3.5,-,N/A,,Clear,360,2013-11-06 12:55:00
8:15 AM,54.0,50.5,88,30.36,10.0,NE,4.6,-,N/A,,Clear,40,2013-11-06 13:15:00
8:35 AM,55.6,50.0,81,30.36,10.0,NE,6.9,-,N/A,,Clear,40,2013-11-06 13:35:00
8:55 AM,57.7,49.3,73,30.36,10.0,NE,8.1,-,N/A,,Clear,50,2013-11-06 13:55:00
9:15 AM,59.5,49.8,70,30.36,10.0,ENE,8.1,-,N/A,,Clear,60,2013-11-06 14:15:00
9:35 AM,61.9,49.6,64,30.36,10.0,NE,6.9,-,N/A,,Clear,40,2013-11-06 14:35:00
9:55 AM,63.1,49.5,61,30.35,10.0,ENE,6.9,-,N/A,,Clear,60,2013-11-06 14:55:00
10:15 AM,64.6,49.8,59,30.35,10.0,ENE,5.8,-,N/A,,Clear,60,2013-11-06 15:15:00
10:35 AM,66.2,49.5,55,30.35,10.0,ENE,5.8,-,N/A,,Clear,70,2013-11-06 15:35:00
10:55 AM,67.3,49.1,52,30.34,10.0,ENE,10.4,-,N/A,,Clear,60,2013-11-06 15:55:00
11:15 AM,68.9,49.5,50,30.33,10.0,East,6.9,-,N/A,,Clear,90,2013-11-06 16:15:00
11:35 AM,70.0,50.0,49,30.32,10.0,NE,9.2,-,N/A,,Clear,50,2013-11-06 16:35:00
11:55 AM,70.7,50.4,48,30.31,10.0,NNE,6.9,-,N/A,,Clear,20,2013-11-06 16:55:00
12:15 PM,70.2,50.7,50,30.30,10.0,East,6.9,-,N/A,,Scattered Clouds,100,2013-11-06 17:15:00
12:35 PM,71.6,51.1,48,30.29,10.0,ENE,5.8,-,N/A,,Mostly Cloudy,60,2013-11-06 17:35:00
12:55 PM,71.6,51.4,49,30.28,10.0,East,5.8,-,N/A,,Overcast,90,2013-11-06 17:55:00
1:15 PM,71.4,52.2,51,30.27,10.0,East,6.9,-,N/A,,Overcast,90,2013-11-06 18:15:00
1:35 PM,71.8,53.1,52,30.26,10.0,East,5.8,-,N/A,,Overcast,90,2013-11-06 18:35:00
1:55 PM,72.0,53.2,52,30.25,10.0,East,5.8,-,N/A,,Overcast,80,2013-11-06 18:55:00
2:15 PM,73.4,53.2,49,30.25,10.0,ENE,3.5,-,N/A,,Mostly Cloudy,60,2013-11-06 19:15:00
2:35 PM,74.3,53.6,48,30.24,10.0,NE,4.6,-,N/A,,Scattered Clouds,50,2013-11-06 19:35:00
2:55 PM,72.3,53.8,52,30.23,10.0,Calm,Calm,-,N/A,,Scattered Clouds,0,2013-11-06 19:55:00
3:15 PM,74.5,54.0,49,30.22,10.0,NE,6.9,-,N/A,,Overcast,40,2013-11-06 20:15:00
3:35 PM,72.0,53.8,53,30.22,10.0,ENE,4.6,-,N/A,,Mostly Cloudy,70,2013-11-06 20:35:00
3:55 PM,71.8,54.5,54,30.22,10.0,East,5.8,-,N/A,,Mostly Cloudy,80,2013-11-06 20:55:00
4:15 PM,72.1,54.3,53,30.21,10.0,NE,4.6,-,N/A,,Overcast,50,2013-11-06 21:15:00
4:35 PM,72.1,54.5,54,30.21,10.0,NNE,3.5,-,N/A,,Overcast,20,2013-11-06 21:35:00
4:55 PM,69.8,54.7,59,30.21,10.0,Calm,Calm,-,N/A,,Scattered Clouds,0,2013-11-06 21:55:00
5:15 PM,67.1,55.6,66,30.21,7.0,Calm,Calm,-,N/A,,Clear,0,2013-11-06 22:15:00
5:35 PM,65.1,56.1,73,30.21,10.0,Calm,Calm,-,N/A,,Clear,0,2013-11-06 22:35:00
5:55 PM,65.1,55.4,71,30.21,10.0,Calm,Calm,-,N/A,,Clear,0,2013-11-06 22:55:00
6:15 PM,64.8,55.0,71,30.20,10.0,NE,3.5,-,N/A,,Clear,40,2013-11-06 23:15:00
6:35 PM,62.8,55.2,76,30.20,10.0,North,3.5,-,N/A,,Scattered Clouds,10,2013-11-06 23:35:00
6:55 PM,64.4,55.4,73,30.20,10.0,Calm,Calm,-,N/A,,Overcast,0,2013-11-06 23:55:00
7:15 PM,62.1,55.6,79,30.20,10.0,Calm,Calm,-,N/A,,Overcast,0,2013-11-07 00:15:00
7:35 PM,60.6,56.3,86,30.19,10.0,Calm,Calm,-,N/A,,Overcast,0,2013-11-07 00:35:00
7:55 PM,61.0,56.3,85,30.19,10.0,Calm,Calm,-,N/A,,Overcast,0,2013-11-07 00:55:00
8:15 PM,61.7,55.4,80,30.19,10.0,Calm,Calm,-,N/A,,Scattered Clouds,0,2013-11-07 01:15:00
8:35 PM,61.0,55.2,81,30.18,10.0,Calm,Calm,-,N/A,,Clear,0,2013-11-07 01:35:00
8:55 PM,59.4,55.4,87,30.18,10.0,Calm,Calm,-,N/A,,Clear,0,2013-11-07 01:55:00
9:15 PM,59.2,56.1,90,30.18,10.0,Calm,Calm,-,N/A,,Mostly Cloudy,0,2013-11-07 02:15:00
9:35 PM,60.1,55.8,86,30.18,10.0,Calm,Calm,-,N/A,,Overcast,0,2013-11-07 02:35:00
9:55 PM,60.3,56.3,87,30.17,10.0,Calm,Calm,-,N/A,,Overcast,0,2013-11-07 02:55:00
10:15 PM,59.4,57.6,94,30.16,10.0,Calm,Calm,-,N/A,,Overcast,0,2013-11-07 03:15:00
10:35 PM,59.7,58.1,94,30.15,10.0,ENE,4.6,-,N/A,,Overcast,70,2013-11-07 03:35:00
10:55 PM,62.1,59.9,93,30.15,10.0,Calm,Calm,-,N/A,,Overcast,0,2013-11-07 03:55:00
11:15 PM,62.1,60.1,93,30.14,10.0,Calm,Calm,-,N/A,,Overcast,0,2013-11-07 04:15:00
11:35 PM,61.5,59.7,94,30.13,10.0,Calm,Calm,-,N/A,,Overcast,0,2013-11-07 04:35:00
11:55 PM,60.4,59.4,96,30.13,10.0,Calm,Calm,-,N/A,,Overcast,0,2013-11-07 04:55:00